User: anonymous   Login
Location: Pacheco
(37.9835°N, 122.0752°W)
Time: 18:23:39
(UTC+00:00)
Language:

Cosmos 1151 Rocket - Orbit

View from above orbital plane
View from above orbital plane
View from above satellite
View from above satellite

Ground track
Ground track

The orbit data is extracted from the following two-line orbital elements,

1 11672U 80005B   24177.05820279  .00000723  00000-0  73202-4 0  9994
2 11672  82.5142 177.2257 0017830  79.8613 280.4616 14.89453937404867
Epoch (UTC): 25 June 2024 01:23:48
Eccentricity: 0.0017830
inclination: 82.5142°
perigee height: 587 km
apogee height: 612 km
right ascension of ascending node: 177.2257°
argument of perigee: 79.8613°
revolutions per day: 14.89453937
mean anomaly at epoch: 280.4616°
orbit number at epoch: 40486

The dashed part of the orbit path shows where the satellite is in the earth's shadow,  

DLR